Terug naar catalogus

DELTA 2 DEB

DPAF

ActiefPO
NORAD 29110·DEBRIS·🇺🇸 United States

Gelanceerd Apr 28, 2006 vanaf Vandenberg Space Force Base

Loading…

Volgende Passages (komende 24 uur)

TLE

VersSource: Space-Track

Epoch: Sep 14, 2026, 13:38 UTC

1 29110U 06016D   26257.56851175  .00045315  00000-0  12126-2 0  9998
2 29110  98.3240 195.3363 0004934  61.8412 298.3328 15.37896335 97497

Volg DELTA 2 DEB in realtime met AllMySat

Download on the App Store